Regional Weather Roundup
Issued by NWS

Home | Current Version | Previous Version | Text Only | Print | Product List | Glossary On
Versions: 1 2 3 4 5 6 7 8 9 10 11 12 13 14 15 16 17 18 19 20 21 22 23 24 25 26 27 28 29 30 31 32 33 34 35 36 37 38 39 40 41 42 43 44 45 46 47 48 49 50
000
ASUS43 KLSX 281910
RWRMO

WEATHER SUMMARY FOR MISSOURI
NATIONAL WEATHER SERVICE SPRINGFIELD MO
200 PM CDT FRI APR 28 2017

NOTE: "FAIR" INDICATES FEW OR NO CLOUDS BELOW 12,000 FEET WITH NO
       SIGNIFICANT WEATHER AND/OR OBSTRUCTIONS TO VISIBILITY.
       CURRENT SKY AND/OR WEATHER CONDITIONS ARE NOT AVAILABLE FOR
       CHILLICOTHE AND FARMINGTON.

MOZ001>031-035>038-043-044-053-054-282000-
...NORTHERN AND WESTERN MISSOURI...

CITY           SKY/WX    TMP DP  RH WIND       PRES   REMARKS
KANSAS CTY INT DRIZZLE   58  56  93 CALM      29.69S FOG
KANSAS C DTWN  CLOUDY    60  57  89 S12G17    29.69R
LEE`S SUMMIT   CLOUDY    60  57  89 S14       29.70R
ST JOSEPH      LGT RAIN  47  47 100 NE10      29.73R
CHILLICOTHE      N/A     52  50  93 N7        29.73S
KIRKSVILLE     CLOUDY    50  31  48 NE12      29.73F HAZE

$$
MOZ066>068-077>081-088>096-101>105-282000-
...SOUTHWEST MISSOURI...

CITY           SKY/WX    TMP DP  RH WIND       PRES   REMARKS
SPRINGFIELD    CLOUDY    62  58  86 S15       29.69S
JOPLIN         CLOUDY    67  62  84 SW8       29.68S
BRANSON        CLOUDY    61  59  94 S5        29.72S

$$
MOZ032>034-039>042-045>050-055>058-069>072-282000-
...CENTRAL MISSOURI...

CITY           SKY/WX    TMP DP  RH WIND       PRES   REMARKS
COLUMBIA       CLOUDY    59  56  89 SE15      29.72R
JEFFERSON CITY CLOUDY    61  56  83 SE13      29.73S
ROLLA          LGT RAIN  56  56 100 NE8       29.73F FOG
SEDALIA        CLOUDY    62  59  90 S9        29.71R
WHITEMAN AFB   CLOUDY    60  60 100 S7        29.69R
OSAGE BEACH    CLOUDY    57  57 100 E6        29.73S

$$
MOZ051-052-059>065-282000-
...EAST CENTRAL MISSOURI...

CITY           SKY/WX    TMP DP  RH WIND       PRES   REMARKS
ST LOUIS INTL  TSTM      56  53  90 N9        29.79R VSB 1
SPIRIT OF STL  TSTM      56  55  97 NE15G30   29.74R FOG
ST CHARLES     TSTM      55  54  96 VRB3      29.79R VSB 3/4

$$
MOZ072>076-082>087-097>100-106>115-282000-
...SOUTH CENTRAL AND SOUTHEAST MISSOURI...

CITY           SKY/WX    TMP DP  RH WIND       PRES   REMARKS
CAPE GIRARDEAU CLOUDY    66  61  84 E8        29.74F
FARMINGTON     TSTM      63  59  87 SE13G18   29.74S
POPLAR BLUFF   CLOUDY    66  64  93 S3        29.74F
WEST PLAINS    LGT RAIN  61  60  97 S12       29.75S FOG

$$




USA.gov is the U.S. government's official web portal to all federal, state and local government web resources and services.